SCP
-0 -0 -0 -0 -0 -0 -0 -0 -0 0 0 0 0 0 0 -0 0 0 0 0 0 0 0 0 0 0 0 0 -0 0 0 0 -0 -0 -0 0 0 0 0 0 0 0 0
-0 -0 -0 -0 -0 -0 -0 0 0 -0 0 -0 0 -0 0 0 -0 0 0 0 0 0 0 0 0 0 0 0 0 0 0 0 0 0 -0 0 0 0 0 0 0 0 0
-0 -0 -0 -0 -0 -0 -0 -0 0 -0 0 0 0 0 0 0 0 0 0 0 0 0 0 0 0 0 0 0 -0 -0 0 0 0 0 0 0 0 -0 0 0 0 0 0
-0 -0 -0 -0 -0 -0 -0 -0 -0 -0 -0 0 0 -0 -0 -0 0 0 0 0 0 0 0 0 0 0 0 0 0 0 0 0 -0 -0 0 0 0 0 0 0 0 0 0
-0 -0 -0 -0 -0 -0 -0 -0 -0 -0 -0 -0 -0 0 0 0 0 0 0 0 0 0 0 0 0 -0 0 0 -0 0 0 0 0 -0 0 0 0 0 0 0 0 0 0
-0 -0 -0 -0 -0 -0 -0 -0 -0 -0 0 0 -0 -0 0 0 0 0 0 0 0 0 0 0 0 0 -0 -0 0 -0 -0 0 0 0 0 0 0 0 0 0 0 0 0
-0 -0 -0 -0 -0 -0 -0 0 -0 0 -0 -0 -0 0 0 0 0 0 0 0 0 0 0 0 0 0 0 0 0 0 -0 0 0 0 0 0 0 0 0 0 0 0 0
-0 -0 -0 -0 -0 -0 -0 0 -0 -0 -0 -0 -0 -0 0 0 0 0 0 0 0 0 0 0 0 0 0 0 0 0 0 0 0 0 0 0 0 0 -0 -0 -0 0 0
-0 -0 -0 -0 -0 -0 -0 0 -0 -0 -0 0 -0 -0 0 0 0 0 0 0 0 0 0 0 0 -0 0 -0 -0 -0 0 0 0 0 0 0 0 0 0 0 0 0 0
-0 -0 -0 -0 -0 -0 -0 0 -0 0 -0 0 0 0 0 0 0 0 0 0 0 0 0 -0 -0 -0 -0 -0 -0 -0 0 -0 -0 0 -0 0 -0 0 0 0 0 0 0
-0 -0 -0 -0 -0 -0 -0 -0 -0 0 0 0 0 0 0 0 0 0 0 0 0 -0 -0 -0 -0 -0 -0 0 -0 0 0 0 -0 0 0 0 0 0 0 0 0 0 0
-0 -0 -0 -0 -0 -0 -0 -0 -0 0 0 0 0 0 0 0 0 0 0 0 -0 -0 -0 -0 -0 -0 -0 0 0 0 -0 -0 -0 0 0 0 0 0 0 0 0 0 0
-0 -0 -0 -0 -0 -0 -0 -0 -0 -0 0 0 0 0 0 0 0 -0 -0 -0 0 -0 -0 -0 -0 -0 0 -0 -0 -0 0 0 0 0 0 0 0 0 0 0 0 0 0
-0 -0 -0 -0 -0 -0 -0 -0 -0 -0 0 0 0 0 0 -0 -0 -0 0 -0 0 -0 0 0 0 -0 -0 -0 0 0 0 0 0 0 0 0 0 0 0 0 0 0 0
-0 -0 -0 -0 -0 -0 -0 -0 -0 0 0 0 0 -0 -0 -0 -0 -0 0 0 0 0 -0 -0 -0 -0 -0 0 0 0 0 0 0 0 0 0 0 -0 -0 0 0 0 0
-0 -0 -0 -0 -0 -0 -0 -0 -0 -0 -0 -0 0 0 0 0 0 0 0 0 -0 -0 -0 -0 -0 -0 -0 -0 0 0 0 0 0 0 0 0 0 0 0 0 0 0 0
-0 -0 -0 -0 -0 -0 -0 -0 -0 -0 0 0 0 0 0 0 0 0 0 -0 -0 -0 -0 -0 -0 -0 -0 0 0 -0 0 0 0 0 0 0 0 0 0 0 0 0 0
-0 -0 -0 -0 -0 -0 -0 -0 -0 -0 -0 -0 -0 -0 0 -0 -0 -0 -0 -0 -0 -0 -0 -0 -0 -0 -0 0 0 0 0 0 0 0 0 0 0 0 0 0 0 0 0
0 0 -0 -0 -0 -0 -0 -0 -0 -0 0 0 0 -0 -0 -0 -0 -0 -0 -0 -0 -0 -0 -0 -0 -0 -0 0 0 0 0 0 0 0 0 0 0 0 -0 0 0 0 0
0 0 0 -0 -0 -0 -0 -0 -0 0 0 -0 -0 -0 -0 -0 -0 -0 -0 -0 -0 -0 -0 -0 -0 -0 -0 0 0 0 0 0 0 0 0 0 0 0 0 0 0 0 0
0 0 0 -0 -0 -0 -0 0 0 0 0 0 -0 -0 -0 -0 -0 -0 -0 -0 -0 -0 -0 -0 -0 -0 -0 0 -0 -0 0 0 0 0 0 0 0 0 0 0 0 0 0
0 0 0 1 0 -0 0 0 0 0 0 0 -0 -0 -0 0 -0 -0 -0 -0 -0 -0 -0 -0 0 0 0 0 0 0 0 0 0 0 0 0 0 0 0 0 0 0 0
0 0 0 1 1 0 0 0 0 0 -0 -0 -0 -0 -0 -0 -0 -0 -0 -0 -0 -0 -0 0 0 -0 -0 0 0 0 0 0 0 0 0 0 0 0 0 0 0 0 0
0 0 0 0 1 1 0 1 1 0 -0 -0 -0 -0 -0 -0 -0 0 0 0 -0 -0 -0 -0 -0 -0 -0 0 0 0 0 0 0 0 0 0 0 0 0 0 0 0 0
0 0 0 1 1 1 1 1 1 0 0 0 0 -0 0 0 0 0 0 -0 -0 0 -0 -0 -0 0 0 0 0 0 0 0 0 0 0 0 0 0 0 0 0 0 0
1 0 0 1 1 1 1 1 1 0 0 0 0 0 0 0 0 0 0 0 0 0 0 0 -0 0 0 0 0 0 0 0 0 0 0 0 0 0 0 0 0 0 0
Wind_Speed_500mb
30 28 25 21 19 17 12 25 26 35 33 32 43 42 31 35 32 28 32 31 23 17 10 7 12 16 21 29 34 29 27 26 22 23 23 17 13 17 14 7 10 17 18
32 37 33 27 22 19 16 26 30 30 33 37 33 30 37 27 29 23 35 32 30 26 15 17 19 24 28 31 34 30 22 20 18 18 19 12 16 10 11 11 16 21 17
37 42 40 34 28 24 23 26 31 32 32 35 30 32 29 27 26 24 30 38 36 30 30 28 27 32 37 28 30 23 23 22 19 18 13 13 11 25 6 12 16 20 18
37 40 41 38 33 30 27 27 29 29 29 33 29 29 27 28 25 20 18 20 34 33 33 32 33 40 34 29 25 22 22 23 22 19 18 19 22 18 16 15 15 17 17
39 42 41 39 36 35 33 31 29 29 27 27 25 24 24 21 24 23 18 17 25 29 26 29 37 34 26 24 24 25 21 18 19 22 19 19 12 14 15 21 22 18 11
45 39 38 40 40 37 35 33 33 29 25 22 20 20 18 19 20 18 12 11 14 17 24 34 30 24 26 21 9 22 21 21 19 18 15 15 11 14 16 21 21 17 9
50 46 45 44 44 42 38 34 32 29 27 24 22 19 18 23 24 16 13 10 15 22 22 18 15 20 22 23 34 25 16 17 15 14 11 11 14 15 15 16 18 13 9
49 50 50 46 46 43 42 37 33 29 27 29 29 27 23 21 18 14 5 6 6 7 9 13 16 20 17 17 15 15 15 17 16 17 17 14 13 15 13 14 16 17 3
51 53 49 45 45 45 44 40 36 33 29 27 30 25 25 23 17 16 14 12 5 9 13 15 15 18 17 13 10 12 14 10 8 11 13 8 11 13 12 10 10 11 16
48 50 51 49 44 44 44 41 40 40 35 37 39 27 23 19 19 21 8 5 8 13 14 13 15 15 9 10 2 3 7 8 5 7 6 4 6 9 9 14 12 8 7
53 52 51 47 44 44 46 45 43 47 46 45 40 35 23 18 15 15 12 6 7 10 14 10 9 8 10 7 4 3 5 3 4 8 11 11 13 12 13 12 13 16 13
55 53 53 52 46 47 47 47 46 43 47 47 45 38 32 28 25 19 14 14 15 13 11 9 9 10 7 5 4 4 7 12 12 13 14 15 15 20 19 18 21 18 17
51 52 53 56 51 47 47 47 46 44 44 46 44 42 38 30 24 18 19 21 15 10 9 6 9 10 11 8 10 13 15 15 16 17 18 19 18 19 21 20 20 20 20
55 55 55 55 53 50 49 48 45 44 45 42 40 35 33 31 26 23 21 15 13 8 9 13 15 13 13 14 14 14 15 17 17 18 17 16 17 19 22 22 24 23 21
54 56 56 56 53 52 50 49 46 46 47 42 38 36 33 30 26 23 18 13 14 12 17 19 18 17 15 13 15 16 17 17 18 18 19 22 25 26 25 21 24 24 20
58 59 58 58 57 55 54 50 48 45 43 42 40 39 38 31 24 21 19 15 14 21 23 22 20 19 15 19 21 22 18 18 18 18 19 22 23 25 26 27 24 25 20
60 61 63 62 60 57 56 55 51 47 44 40 39 43 40 35 31 29 21 20 26 28 26 23 20 18 19 23 22 28 19 20 21 21 19 15 15 17 17 22 22 21 20
64 64 62 58 57 55 54 51 50 51 47 45 43 42 42 39 32 27 28 30 31 31 28 25 22 20 22 23 23 21 25 25 25 23 20 17 17 15 14 13 14 16 17
66 65 65 62 59 58 56 56 54 53 49 50 50 46 40 37 32 33 32 35 36 34 29 26 24 21 22 25 24 28 24 23 22 22 20 17 18 17 14 11 12 13 16
64 59 60 61 60 59 60 61 57 57 54 53 47 45 42 37 36 32 38 41 36 33 32 30 26 22 23 30 29 31 21 21 17 17 19 18 15 17 16 14 14 13 13
56 57 62 70 67 68 66 64 61 60 57 54 48 45 41 38 36 38 44 42 40 37 35 31 28 26 25 32 32 37 19 15 16 12 12 9 13 18 18 17 15 15 15
53 58 63 72 76 75 71 68 65 61 59 54 51 49 46 45 42 44 46 44 41 39 37 34 31 30 30 29 30 28 26 25 15 14 10 7 12 17 18 17 18 19 21
58 59 65 74 83 82 78 74 65 63 61 55 55 52 51 48 46 49 49 49 45 38 36 34 30 30 32 31 29 26 24 20 17 13 13 4 9 18 18 17 15 18 11
53 58 62 66 81 85 80 76 69 65 60 58 59 57 55 52 52 54 51 46 44 39 37 36 35 33 33 32 34 29 27 21 18 15 8 5 6 8 6 15 13 7 8
47 54 64 70 88 91 85 78 74 69 62 61 62 60 59 56 57 50 49 42 41 38 39 37 35 38 37 36 35 31 25 20 21 20 11 6 3 1 2 5 6 6 7
44 51 56 59 69 85 91 83 76 69 67 66 66 63 58 60 55 53 55 52 46 42 39 40 34 33 33 34 31 34 34 31 24 18 12 8 5 2 2 4 7 9 10
Wind_Direction_500mb
204 195 192 187 172 167 172 176 175 182 187 194 183 182 188 196 195 199 205 205 208 216 216 286 304 307 311 310 311 312 310 323 319 329 323 320 297 252 328 312 336 350 337
195 192 190 189 176 174 163 171 174 176 183 183 181 187 198 204 212 213 212 212 221 228 242 281 295 305 312 308 306 308 308 314 307 322 313 314 321 321 314 334 356 345 341
193 191 189 188 178 176 167 173 174 180 176 184 185 191 187 199 211 215 224 224 227 236 250 279 291 299 308 303 298 304 302 298 312 309 309 333 316 334 330 328 356 349 3
192 190 189 187 182 178 167 169 170 180 182 190 193 197 201 207 210 211 232 225 234 242 253 273 287 295 301 292 292 303 297 311 309 308 288 299 293 318 324 324 346 345 0
193 187 189 187 184 181 180 176 170 174 176 180 185 200 197 216 218 216 223 240 247 248 262 271 287 297 293 290 295 295 293 305 300 285 296 298 302 298 303 321 329 338 1
190 181 182 183 183 184 184 185 189 181 177 173 180 180 189 191 189 171 177 180 213 236 264 280 292 289 289 295 302 316 287 295 304 298 304 306 305 310 315 314 322 337 350
183 179 177 181 181 186 186 188 188 188 188 186 183 177 164 147 155 166 185 213 242 251 263 271 274 287 285 278 281 299 309 299 301 303 309 318 324 314 314 310 321 324 344
183 183 182 181 182 184 188 188 188 193 185 169 163 156 144 149 165 191 183 170 184 245 241 231 292 297 299 296 292 294 304 304 297 296 295 312 313 309 318 321 328 329 140
187 188 183 182 182 182 187 186 187 184 177 176 165 157 146 160 160 171 162 126 115 121 305 302 299 299 296 287 283 292 296 301 319 332 318 340 335 337 343 343 337 337 319
181 181 181 184 183 184 186 183 187 185 179 168 152 143 130 136 149 146 153 288 293 283 283 281 286 282 276 274 270 13 292 314 14 5 325 20 359 2 359 344 344 322 333
175 176 179 182 181 180 184 183 188 188 184 181 173 167 187 211 227 225 248 253 297 282 268 255 254 256 250 227 233 293 316 44 53 72 73 69 66 53 39 35 28 17 42
171 173 175 177 177 179 181 183 187 194 184 190 195 207 210 214 218 222 231 263 265 229 222 222 227 214 200 192 182 137 107 100 88 76 67 61 54 51 57 41 53 54 45
169 170 173 178 179 179 179 183 187 191 185 187 192 194 199 200 208 214 226 231 218 190 184 186 171 169 170 143 128 120 105 97 88 81 74 68 64 69 61 67 65 51 55
172 172 176 180 181 182 180 181 184 185 180 181 188 183 181 193 197 209 214 199 179 181 169 162 164 153 128 120 115 114 114 101 93 84 79 78 72 67 59 60 54 61 53
177 177 178 180 181 181 178 176 179 183 180 179 180 178 178 180 197 204 199 192 173 167 168 161 151 138 117 123 128 124 116 111 102 86 76 82 79 75 87 68 64 64 64
184 182 180 181 183 184 177 174 174 178 179 175 177 180 188 192 194 194 185 186 169 165 159 151 151 142 146 150 143 126 126 115 102 97 93 84 77 77 71 64 57 53 59
188 186 186 185 185 185 181 178 177 178 182 183 181 186 190 189 189 192 185 175 160 158 153 153 147 144 146 137 134 127 122 111 108 107 104 94 87 75 56 47 46 40 35
193 193 189 186 185 184 184 180 180 186 191 193 192 191 192 195 193 187 178 164 161 159 157 153 148 145 140 134 135 129 120 115 110 104 100 100 98 93 77 50 40 36 19
199 197 192 187 182 181 181 182 186 190 196 201 200 198 198 195 188 185 172 167 164 161 160 155 149 146 145 137 134 123 122 118 112 109 107 96 84 67 53 44 41 42 36
203 196 191 185 183 182 184 188 190 194 200 203 201 199 198 195 189 181 175 173 168 166 162 159 154 150 150 142 142 127 134 122 120 107 99 96 68 41 34 52 54 43 32
196 197 188 186 183 189 190 191 196 200 201 204 199 200 197 193 189 182 179 175 169 173 169 168 164 160 157 150 145 138 145 130 122 114 112 89 51 30 29 40 44 43 59
191 190 185 185 188 193 193 194 201 204 205 205 199 199 196 192 190 186 178 179 181 179 175 176 169 171 165 161 155 151 153 145 136 133 145 77 39 23 28 34 32 45 44
194 190 186 186 192 195 196 197 202 207 209 201 200 197 194 194 191 186 185 183 184 182 177 176 172 175 179 177 171 164 158 152 138 163 164 86 41 37 18 21 25 46 20
198 192 188 188 190 196 199 202 205 211 205 197 198 196 196 195 192 188 189 187 185 184 183 182 182 184 183 186 186 180 176 170 172 174 158 73 74 61 43 26 12 23 25
201 196 194 196 195 195 196 200 204 207 200 198 197 197 197 196 191 186 189 190 194 191 188 187 187 187 190 192 189 183 180 180 188 167 177 155 151 27 355 349 352 360 6
204 198 198 198 195 194 194 197 204 204 201 197 197 195 193 188 188 188 193 194 198 196 194 187 185 193 194 204 193 190 187 189 185 170 184 189 207 257 292 314 346 344 348
Wind_Speed_850mb
30 28 25 21 19 17 12 25 26 35 33 32 43 42 31 35 32 28 32 31 23 17 10 7 12 16 21 29 34 29 27 26 22 23 23 17 13 17 14 7 10 17 18
32 37 33 27 22 19 16 26 30 30 33 37 33 30 37 27 29 23 35 32 30 26 15 17 19 24 28 31 34 30 22 20 18 18 19 12 16 10 11 11 16 21 17
37 42 40 34 28 24 23 26 31 32 32 35 30 32 29 27 26 24 30 38 36 30 30 28 27 32 37 28 30 23 23 22 19 18 13 13 11 25 6 12 16 20 18
37 40 41 38 33 30 27 27 29 29 29 33 29 29 27 28 25 20 18 20 34 33 33 32 33 40 34 29 25 22 22 23 22 19 18 19 22 18 16 15 15 17 17
39 42 41 39 36 35 33 31 29 29 27 27 25 24 24 21 24 23 18 17 25 29 26 29 37 34 26 24 24 25 21 18 19 22 19 19 12 14 15 21 22 18 11
45 39 38 40 40 37 35 33 33 29 25 22 20 20 18 19 20 18 12 11 14 17 24 34 30 24 26 21 9 22 21 21 19 18 15 15 11 14 16 21 21 17 9
50 46 45 44 44 42 38 34 32 29 27 24 22 19 18 23 24 16 13 10 15 22 22 18 15 20 22 23 34 25 16 17 15 14 11 11 14 15 15 16 18 13 9
49 50 50 46 46 43 42 37 33 29 27 29 29 27 23 21 18 14 5 6 6 7 9 13 16 20 17 17 15 15 15 17 16 17 17 14 13 15 13 14 16 17 3
51 53 49 45 45 45 44 40 36 33 29 27 30 25 25 23 17 16 14 12 5 9 13 15 15 18 17 13 10 12 14 10 8 11 13 8 11 13 12 10 10 11 16
48 50 51 49 44 44 44 41 40 40 35 37 39 27 23 19 19 21 8 5 8 13 14 13 15 15 9 10 2 3 7 8 5 7 6 4 6 9 9 14 12 8 7
53 52 51 47 44 44 46 45 43 47 46 45 40 35 23 18 15 15 12 6 7 10 14 10 9 8 10 7 4 3 5 3 4 8 11 11 13 12 13 12 13 16 13
55 53 53 52 46 47 47 47 46 43 47 47 45 38 32 28 25 19 14 14 15 13 11 9 9 10 7 5 4 4 7 12 12 13 14 15 15 20 19 18 21 18 17
51 52 53 56 51 47 47 47 46 44 44 46 44 42 38 30 24 18 19 21 15 10 9 6 9 10 11 8 10 13 15 15 16 17 18 19 18 19 21 20 20 20 20
55 55 55 55 53 50 49 48 45 44 45 42 40 35 33 31 26 23 21 15 13 8 9 13 15 13 13 14 14 14 15 17 17 18 17 16 17 19 22 22 24 23 21
54 56 56 56 53 52 50 49 46 46 47 42 38 36 33 30 26 23 18 13 14 12 17 19 18 17 15 13 15 16 17 17 18 18 19 22 25 26 25 21 24 24 20
58 59 58 58 57 55 54 50 48 45 43 42 40 39 38 31 24 21 19 15 14 21 23 22 20 19 15 19 21 22 18 18 18 18 19 22 23 25 26 27 24 25 20
60 61 63 62 60 57 56 55 51 47 44 40 39 43 40 35 31 29 21 20 26 28 26 23 20 18 19 23 22 28 19 20 21 21 19 15 15 17 17 22 22 21 20
64 64 62 58 57 55 54 51 50 51 47 45 43 42 42 39 32 27 28 30 31 31 28 25 22 20 22 23 23 21 25 25 25 23 20 17 17 15 14 13 14 16 17
66 65 65 62 59 58 56 56 54 53 49 50 50 46 40 37 32 33 32 35 36 34 29 26 24 21 22 25 24 28 24 23 22 22 20 17 18 17 14 11 12 13 16
64 59 60 61 60 59 60 61 57 57 54 53 47 45 42 37 36 32 38 41 36 33 32 30 26 22 23 30 29 31 21 21 17 17 19 18 15 17 16 14 14 13 13
56 57 62 70 67 68 66 64 61 60 57 54 48 45 41 38 36 38 44 42 40 37 35 31 28 26 25 32 32 37 19 15 16 12 12 9 13 18 18 17 15 15 15
53 58 63 72 76 75 71 68 65 61 59 54 51 49 46 45 42 44 46 44 41 39 37 34 31 30 30 29 30 28 26 25 15 14 10 7 12 17 18 17 18 19 21
58 59 65 74 83 82 78 74 65 63 61 55 55 52 51 48 46 49 49 49 45 38 36 34 30 30 32 31 29 26 24 20 17 13 13 4 9 18 18 17 15 18 11
53 58 62 66 81 85 80 76 69 65 60 58 59 57 55 52 52 54 51 46 44 39 37 36 35 33 33 32 34 29 27 21 18 15 8 5 6 8 6 15 13 7 8
47 54 64 70 88 91 85 78 74 69 62 61 62 60 59 56 57 50 49 42 41 38 39 37 35 38 37 36 35 31 25 20 21 20 11 6 3 1 2 5 6 6 7
44 51 56 59 69 85 91 83 76 69 67 66 66 63 58 60 55 53 55 52 46 42 39 40 34 33 33 34 31 34 34 31 24 18 12 8 5 2 2 4 7 9 10
Wind_Direction_850mb
204 195 192 187 172 167 172 176 175 182 187 194 183 182 188 196 195 199 205 205 208 216 216 286 304 307 311 310 311 312 310 323 319 329 323 320 297 252 328 312 336 350 337
195 192 190 189 176 174 163 171 174 176 183 183 181 187 198 204 212 213 212 212 221 228 242 281 295 305 312 308 306 308 308 314 307 322 313 314 321 321 314 334 356 345 341
193 191 189 188 178 176 167 173 174 180 176 184 185 191 187 199 211 215 224 224 227 236 250 279 291 299 308 303 298 304 302 298 312 309 309 333 316 334 330 328 356 349 3
192 190 189 187 182 178 167 169 170 180 182 190 193 197 201 207 210 211 232 225 234 242 253 273 287 295 301 292 292 303 297 311 309 308 288 299 293 318 324 324 346 345 0
193 187 189 187 184 181 180 176 170 174 176 180 185 200 197 216 218 216 223 240 247 248 262 271 287 297 293 290 295 295 293 305 300 285 296 298 302 298 303 321 329 338 1
190 181 182 183 183 184 184 185 189 181 177 173 180 180 189 191 189 171 177 180 213 236 264 280 292 289 289 295 302 316 287 295 304 298 304 306 305 310 315 314 322 337 350
183 179 177 181 181 186 186 188 188 188 188 186 183 177 164 147 155 166 185 213 242 251 263 271 274 287 285 278 281 299 309 299 301 303 309 318 324 314 314 310 321 324 344
183 183 182 181 182 184 188 188 188 193 185 169 163 156 144 149 165 191 183 170 184 245 241 231 292 297 299 296 292 294 304 304 297 296 295 312 313 309 318 321 328 329 140
187 188 183 182 182 182 187 186 187 184 177 176 165 157 146 160 160 171 162 126 115 121 305 302 299 299 296 287 283 292 296 301 319 332 318 340 335 337 343 343 337 337 319
181 181 181 184 183 184 186 183 187 185 179 168 152 143 130 136 149 146 153 288 293 283 283 281 286 282 276 274 270 13 292 314 14 5 325 20 359 2 359 344 344 322 333
175 176 179 182 181 180 184 183 188 188 184 181 173 167 187 211 227 225 248 253 297 282 268 255 254 256 250 227 233 293 316 44 53 72 73 69 66 53 39 35 28 17 42
171 173 175 177 177 179 181 183 187 194 184 190 195 207 210 214 218 222 231 263 265 229 222 222 227 214 200 192 182 137 107 100 88 76 67 61 54 51 57 41 53 54 45
169 170 173 178 179 179 179 183 187 191 185 187 192 194 199 200 208 214 226 231 218 190 184 186 171 169 170 143 128 120 105 97 88 81 74 68 64 69 61 67 65 51 55
172 172 176 180 181 182 180 181 184 185 180 181 188 183 181 193 197 209 214 199 179 181 169 162 164 153 128 120 115 114 114 101 93 84 79 78 72 67 59 60 54 61 53
177 177 178 180 181 181 178 176 179 183 180 179 180 178 178 180 197 204 199 192 173 167 168 161 151 138 117 123 128 124 116 111 102 86 76 82 79 75 87 68 64 64 64
184 182 180 181 183 184 177 174 174 178 179 175 177 180 188 192 194 194 185 186 169 165 159 151 151 142 146 150 143 126 126 115 102 97 93 84 77 77 71 64 57 53 59
188 186 186 185 185 185 181 178 177 178 182 183 181 186 190 189 189 192 185 175 160 158 153 153 147 144 146 137 134 127 122 111 108 107 104 94 87 75 56 47 46 40 35
193 193 189 186 185 184 184 180 180 186 191 193 192 191 192 195 193 187 178 164 161 159 157 153 148 145 140 134 135 129 120 115 110 104 100 100 98 93 77 50 40 36 19
199 197 192 187 182 181 181 182 186 190 196 201 200 198 198 195 188 185 172 167 164 161 160 155 149 146 145 137 134 123 122 118 112 109 107 96 84 67 53 44 41 42 36
203 196 191 185 183 182 184 188 190 194 200 203 201 199 198 195 189 181 175 173 168 166 162 159 154 150 150 142 142 127 134 122 120 107 99 96 68 41 34 52 54 43 32
196 197 188 186 183 189 190 191 196 200 201 204 199 200 197 193 189 182 179 175 169 173 169 168 164 160 157 150 145 138 145 130 122 114 112 89 51 30 29 40 44 43 59
191 190 185 185 188 193 193 194 201 204 205 205 199 199 196 192 190 186 178 179 181 179 175 176 169 171 165 161 155 151 153 145 136 133 145 77 39 23 28 34 32 45 44
194 190 186 186 192 195 196 197 202 207 209 201 200 197 194 194 191 186 185 183 184 182 177 176 172 175 179 177 171 164 158 152 138 163 164 86 41 37 18 21 25 46 20
198 192 188 188 190 196 199 202 205 211 205 197 198 196 196 195 192 188 189 187 185 184 183 182 182 184 183 186 186 180 176 170 172 174 158 73 74 61 43 26 12 23 25
201 196 194 196 195 195 196 200 204 207 200 198 197 197 197 196 191 186 189 190 194 191 188 187 187 187 190 192 189 183 180 180 188 167 177 155 151 27 355 349 352 360 6
204 198 198 198 195 194 194 197 204 204 201 197 197 195 193 188 188 188 193 194 198 196 194 187 185 193 194 204 193 190 187 189 185 170 184 189 207 257 292 314 346 344 348